Regional Weather Roundup
Issued by NWS

Home | Current Version | Previous Version | Graphics & Text | Print | Product List | Glossary On
Versions: 1 2 3 4 5 6 7 8 9 10 11 12 13 14 15 16 17 18 19 20 21 22 23 24 25 26 27 28 29 30 31 32 33 34 35 36 37 38 39 40 41 42 43 44 45 46 47 48 49 50
445
ASUS43 KBIS 050310
RWRND

NORTH DAKOTA REGIONAL WEATHER ROUNDUP
NATIONAL WEATHER SERVICE BISMARCK ND
1000 PM CDT WED MAY 04 2016

NOTE: "FAIR" INDICATES FEW OR NO CLOUDS BELOW 12,000 FEET WITH NO
SIGNIFICANT WEATHER AND/OR OBSTRUCTIONS TO VISIBILITY.


NDZ001>003-009>011-017-050400-
NORTHWEST NORTH DAKOTA

CITY           SKY/WX    TMP DP  RH WIND       PRES   REMARKS
WILLISTON      CLEAR     62  42  47 CALM      29.85S
MINOT          CLEAR     75  38  26 SW5       29.87R
$$

NDZ018>021-031>035-040>046-050400-
SOUTHWEST NORTH DAKOTA

CITY           SKY/WX    TMP DP  RH WIND       PRES   REMARKS
BISMARCK       CLEAR     60  46  59 SE7       29.95R
DICKINSON      CLEAR     56  40  55 S8        29.93R
GARRISON         N/A     63  43  48 S6        29.90R
HETTINGER ARPT CLEAR     60  43  53 S10       29.99S
$$

NDZ004>008-012>016-024-026-027-054-050400-
NORTHEAST NORTH DAKOTA

CITY           SKY/WX    TMP DP  RH WIND       PRES   REMARKS
GRAND FORKS    MOCLDY    59  29  31 S8        29.92F
GRND FRKS AFB  PTCLDY    59  30  33 SE10      29.92F
DEVILS LAKE    CLEAR     63  40  42 S7        29.91S
$$

NDZ022-023-025-028>030-036>039-047>053-050400-
SOUTHEAST NORTH DAKOTA

CITY           SKY/WX    TMP DP  RH WIND       PRES   REMARKS
FARGO          PTCLDY    57  28  33 S3        29.96S
JAMESTOWN      CLEAR     57  39  51 S8        29.95S
$$





USA.gov is the U.S. government's official web portal to all federal, state and local government web resources and services.